COSMOS 2536 (44422 NORAD) Tracking and Keplerian Element Data

This shows tracking and keplerian element data for the satellite.

Feedback or suggestion? Click here.




ElementValue
Catalog44422
NameCOSMOS 2536
Epoch Orbit3938
Epoch Day92.18752814
Epoch Year2020
RAAN145.2341
Inclination97.8402
Eccentricity0.0010526
Argument of Perigee154.5428
Mean Anonmoly205.6331
Mean Motion14.84499385
Decay Rate8.3E-06
L11 44422U 19039B 20092.18752814 .00000830 00000-0 10473-3 0 9996
L22 44422 97.8402 145.2341 0010526 154.5428 205.6331 14.84499385 39389

Live tracking and technical data element details for COSMOS 2536 (NORAD 44422). COSMOS 2536 can be tracked NOW for your location showing map with azimuth and elevation plus other details from your city location.

Track the satellite on the map from your city or location and see movement details for azimuth, elevation, latitude, longitude, range, height, and movement on the map or in text.







IsCatalogInMostPopularTable: catalog: 44422, numindb: 64
Update: records affected: 1



GetName: 44422 COSMOS 2536

Hit Count: updated at: Thu, 02 Apr 2020 13:40:18 GMT